Probability
6 11 16 16 11 8 9 12 13 12 11 9 7 6 6 6 4 3 3 3 3 3 3 2 1 0 0 0 0 0 0 0 0 1 0 0 0 0 0 0 0 0 0
7 12 18 19 16 13 12 12 13 12 12 10 8 7 6 6 4 3 3 3 3 3 2 2 1 0 0 0 0 0 0 0 1 1 1 0 0 0 0 0 0 0 0
8 13 19 21 20 18 16 14 12 12 12 11 9 7 6 6 4 3 3 3 3 3 2 2 2 1 1 1 0 0 0 0 1 2 2 0 0 0 0 0 0 0 0
8 12 17 21 21 20 18 14 11 10 11 11 10 8 7 6 4 3 3 3 3 2 1 1 3 3 2 2 1 0 0 0 1 2 1 0 0 0 0 0 0 0 0
8 11 16 20 21 20 18 14 9 8 10 12 11 9 8 7 6 5 4 4 4 3 1 1 1 2 3 3 2 1 1 2 2 2 1 0 0 0 0 0 0 0 0
8 11 16 19 20 20 18 14 10 8 10 12 12 11 9 7 7 7 6 5 5 5 3 1 0 1 2 3 2 2 2 2 2 2 1 0 0 0 0 0 0 0 0
8 10 15 19 20 20 18 15 12 10 10 11 12 11 9 7 7 8 7 6 6 6 5 3 1 1 1 1 1 1 1 1 1 1 0 0 0 0 0 0 0 0 0
11 11 13 17 18 19 19 16 13 12 11 11 12 11 9 8 8 7 6 6 6 7 6 6 5 4 2 1 0 0 0 0 0 0 0 0 0 0 0 0 0 0 0
12 11 12 13 14 15 15 14 13 13 13 11 10 10 8 9 8 6 6 6 7 7 7 8 9 7 4 1 0 0 0 0 0 0 0 0 0 0 0 0 0 0 0
12 12 11 11 10 9 9 9 9 10 11 9 7 6 5 6 6 5 5 6 6 7 8 9 10 8 5 2 1 0 0 0 0 0 0 0 0 0 0 0 0 0 0
11 11 10 9 8 6 5 5 5 6 5 3 3 2 2 3 4 4 4 6 6 7 7 8 8 7 4 2 1 0 0 0 0 0 0 0 0 0 0 0 0 0 0
8 8 8 8 8 8 6 5 5 4 2 0 0 1 1 3 3 4 4 5 6 6 6 6 6 4 2 1 0 0 0 0 0 0 0 0 0 0 0 0 0 0 0
6 7 7 8 8 9 8 6 6 6 4 2 1 1 3 4 4 5 6 5 5 5 6 6 3 1 0 0 0 0 0 0 0 0 0 0 0 0 0 0 0 0 0
6 6 7 7 7 8 7 7 6 7 6 5 4 3 4 6 6 6 6 6 6 6 6 5 2 0 0 0 0 0 0 0 0 0 0 0 0 0 0 0 0 0 0
5 6 6 5 6 6 6 4 5 7 7 6 5 5 4 5 6 6 6 6 6 6 5 3 1 0 0 0 0 0 0 0 0 0 0 0 0 0 0 0 0 0 0
4 5 5 4 4 5 4 2 3 6 7 6 5 5 4 5 6 5 5 5 5 5 4 3 1 0 0 0 0 0 0 0 0 0 0 0 0 0 0 0 0 0 0
4 4 5 4 3 4 3 1 1 3 5 6 6 6 5 5 5 5 4 4 5 5 4 3 1 1 2 1 1 0 0 0 0 0 0 0 0 0 0 0 0 0 0
3 4 4 4 3 3 3 2 1 2 3 4 5 6 5 4 4 4 4 3 3 4 4 3 3 3 2 2 1 0 0 0 0 0 0 0 0 0 0 0 0 0 0
3 3 4 3 3 3 3 2 2 2 2 2 4 5 5 3 2 3 2 1 1 1 2 2 3 3 1 1 1 0 0 0 0 0 0 0 0 0 0 0 0 0 0
3 3 3 3 3 3 3 2 1 1 1 1 2 5 5 3 1 1 1 0 0 0 0 1 2 2 1 0 0 0 0 0 0 0 0 0 0 0 0 0 0 0 0
1 2 2 2 2 3 3 2 1 0 0 0 1 3 4 3 2 1 1 0 0 0 0 1 2 2 1 1 0 0 0 0 0 0 0 0 0 0 0 0 0 0 0
0 1 1 1 1 2 2 1 0 0 0 0 1 3 3 3 3 3 2 1 1 1 0 0 1 2 2 2 1 0 0 0 0 0 0 0 0 0 0 0 0 0 0
1 0 1 1 0 1 1 0 0 0 0 1 2 4 3 3 4 4 3 3 2 2 1 0 0 1 2 3 2 1 0 0 0 0 0 0 0 0 0 0 0 0 0
2 1 1 1 1 1 0 0 0 0 0 1 3 3 3 3 4 5 4 3 3 3 2 1 1 1 1 2 3 2 1 0 0 0 0 0 0 0 0 0 0 0 0
2 2 2 2 2 2 1 0 0 0 1 2 2 1 1 1 2 3 3 3 3 3 3 3 2 2 1 1 2 2 1 0 0 0 0 0 0 0 0 0 0 0 0
2 3 3 3 3 2 1 0 0 0 1 2 2 1 0 0 1 1 2 3 3 3 3 3 3 3 2 1 1 2 2 1 0 0 0 0 0 0 0 0 0 0 0
Wind_Speed
4 4 4 4 6 6 7 8 9 9 9 9 9 9 9 9 9 9 9 9 10 10 10 11 11 11 11 11 11 11 11 11 11 11 11 11 10 10 10 9 7 8 10
4 5 5 5 6 6 7 7 8 8 8 9 9 9 9 9 9 9 9 9 9 10 10 10 10 11 11 11 11 11 11 11 10 10 9 9 10 10 10 9 9 8 9
4 6 7 6 6 7 7 7 7 8 8 8 9 9 9 9 8 8 8 9 9 9 9 10 9 10 10 10 10 10 10 10 9 8 5 6 8 9 9 8 8 9 9
4 5 6 6 7 7 7 7 7 7 8 8 9 8 8 8 8 8 8 8 9 9 9 9 9 10 10 10 9 9 9 9 8 4 4 5 6 8 8 7 7 7 7
4 4 5 6 7 7 7 7 7 7 8 8 8 8 8 8 8 8 7 7 8 8 9 9 9 9 9 9 9 9 9 8 6 4 5 5 5 7 7 7 7 6 6
5 4 6 5 6 7 7 7 7 7 8 8 8 8 8 8 8 7 7 7 7 8 8 8 9 9 9 9 9 8 8 7 4 4 4 4 5 6 6 6 5 5 6
5 4 6 5 6 6 7 6 7 7 7 8 7 7 8 8 8 7 7 6 6 7 8 8 8 8 8 8 8 8 7 4 3 4 4 4 5 5 5 5 4 4 4
3 4 5 5 5 6 6 6 6 7 6 7 7 7 8 8 8 7 7 6 6 7 7 8 8 8 8 7 7 7 6 3 3 3 3 3 5 4 4 4 4 4 3
2 3 3 5 5 5 5 5 5 5 6 6 7 7 7 7 7 7 7 6 6 6 7 7 7 7 7 7 7 6 5 2 2 2 2 2 3 3 3 3 3 3 3
1 2 2 3 4 5 5 5 5 5 5 5 6 6 6 6 7 6 6 5 6 6 6 6 7 7 7 7 6 6 4 2 2 2 1 3 3 2 2 2 2 2 2
1 1 2 2 2 3 4 5 5 4 4 5 5 6 5 5 6 5 5 5 6 6 6 6 6 7 6 6 6 5 2 1 2 1 1 3 1 1 0 1 1 1 2
1 1 1 2 2 3 3 4 3 3 3 4 4 5 4 4 3 4 6 5 5 6 6 6 6 6 4 3 5 4 2 1 1 1 2 2 0 1 1 1 1 2 2
2 1 1 2 2 2 2 3 2 2 3 3 4 5 4 4 3 3 3 3 4 4 4 4 4 3 2 2 2 2 1 1 1 1 1 1 1 2 2 2 2 2 3
2 2 2 2 2 2 2 2 2 2 2 2 3 4 4 3 3 3 2 3 2 2 2 2 1 2 2 2 2 2 2 1 1 1 1 1 2 2 3 3 3 3 4
2 2 2 2 2 2 2 2 2 3 3 3 3 4 4 3 3 3 2 2 2 2 2 2 1 2 2 2 1 2 2 2 2 1 0 1 2 3 4 4 4 4 4
3 3 2 2 2 3 3 2 2 2 3 3 3 3 4 3 3 3 3 3 2 2 1 2 2 1 1 1 2 2 2 3 3 3 2 1 1 3 4 4 5 5 5
3 3 3 3 2 3 3 3 2 2 2 3 3 3 4 4 4 3 3 3 2 2 2 2 2 1 1 1 2 2 2 2 3 3 3 2 2 2 3 5 6 6 6
3 3 3 2 2 2 3 3 2 2 3 2 2 3 4 4 4 3 3 2 2 2 2 2 2 2 2 2 2 2 2 2 3 3 3 3 3 2 3 4 6 6 6
3 3 3 3 3 2 2 2 2 2 3 3 3 2 3 4 4 3 3 2 3 2 2 2 2 2 2 2 2 2 2 3 3 3 3 3 3 3 3 2 4 5 6
3 3 3 3 3 3 2 2 2 3 2 2 3 3 3 4 5 4 3 3 3 3 2 2 2 2 2 2 2 2 3 3 3 3 4 3 3 3 3 3 3 3 4
2 2 3 3 3 3 2 2 2 2 2 3 3 3 4 4 5 4 3 4 3 3 3 3 3 3 2 2 2 2 3 3 4 3 3 4 4 4 3 4 3 3 3
3 2 2 3 4 4 3 2 2 2 2 2 2 3 3 4 4 4 4 4 4 3 4 4 4 3 2 2 2 2 3 3 3 3 3 4 4 3 4 4 4 4 4
3 3 2 2 3 3 3 2 2 2 2 2 3 3 4 4 5 5 5 4 4 4 4 5 5 5 3 3 3 3 3 3 2 3 4 4 4 4 4 4 5 5 5
4 3 3 3 2 3 3 4 5 4 4 4 3 3 3 4 5 5 5 5 5 4 5 5 5 5 5 4 3 3 4 3 3 2 2 3 4 5 5 4 4 5 5
5 4 3 3 2 2 3 5 5 5 4 3 3 4 4 4 4 5 5 4 4 4 5 6 5 6 5 5 4 3 3 3 4 4 4 3 3 4 4 5 4 4 5
5 4 4 3 3 2 2 4 5 6 5 4 4 4 3 3 4 5 5 5 5 4 5 6 6 6 5 6 5 4 4 4 4 4 5 5 4 3 4 4 4 4 4
Wind_Direction
157 153 132 137 128 121 119 126 130 129 129 127 126 125 125 124 121 121 118 116 117 114 113 112 112 111 107 104 101 97 94 90 87 85 86 84 82 82 81 75 72 80 74
159 156 133 131 125 126 125 120 124 127 128 128 128 126 125 125 123 121 121 120 118 115 115 116 115 113 110 106 102 98 95 92 88 83 84 90 83 80 78 70 58 69 73
156 152 142 129 124 125 127 122 124 129 130 130 129 127 125 124 126 124 122 121 120 117 115 115 116 117 112 108 104 101 97 93 89 88 97 95 89 80 76 71 70 73 72
160 156 148 129 127 125 130 129 123 132 131 131 129 127 126 125 124 125 123 121 123 121 118 114 111 116 115 112 109 105 101 96 92 98 99 86 88 82 77 73 73 74 72
161 154 134 128 129 126 130 132 129 133 133 128 131 130 127 126 125 123 124 123 124 123 120 116 113 111 116 116 114 110 106 103 103 106 88 85 84 82 78 75 71 71 71
167 159 137 131 132 127 128 134 131 127 132 129 130 133 129 128 126 123 121 123 126 126 123 120 117 115 114 117 115 111 106 111 133 101 92 87 83 85 81 76 71 70 69
171 161 146 137 136 134 131 132 136 128 131 131 128 132 130 128 123 121 119 119 125 128 125 124 122 119 120 117 118 114 110 107 108 97 88 82 76 78 83 79 76 69 65
168 164 153 145 138 133 129 126 130 131 127 132 128 128 128 125 122 121 119 115 122 125 126 124 122 124 125 123 118 119 114 118 118 105 98 89 75 76 78 77 68 62 65
143 148 153 160 152 136 126 126 123 129 126 130 128 128 130 127 125 125 122 116 122 125 128 128 125 125 123 119 114 109 109 93 135 103 102 92 83 82 78 78 65 53 59
131 145 159 163 160 158 151 127 121 119 123 125 125 119 127 129 130 127 123 114 120 121 123 125 123 121 119 119 114 107 112 163 133 116 107 87 84 87 76 69 57 49 37
157 165 163 158 156 162 158 141 139 129 122 132 135 119 139 152 146 141 120 109 118 121 123 126 126 123 123 125 119 113 153 160 132 116 89 74 82 98 67 31 15 8 2
229 203 175 162 161 165 161 159 168 168 155 165 162 155 163 156 146 141 121 111 117 119 124 118 123 132 142 140 134 151 169 165 152 137 80 68 280 275 296 316 319 316 317
236 220 217 178 166 166 168 172 173 175 172 177 171 162 162 154 147 146 138 128 132 133 133 128 139 141 141 136 158 170 168 181 175 158 96 72 276 278 277 285 297 302 301
237 241 238 184 168 174 168 175 180 177 181 180 176 167 165 159 156 155 153 150 151 146 140 145 157 150 146 152 173 181 185 215 215 209 87 69 295 285 286 287 291 296 295
240 238 239 207 180 172 173 181 187 188 185 181 182 176 171 163 162 163 159 152 148 144 154 155 168 166 169 171 186 202 202 212 226 224 132 73 299 290 287 290 291 289 291
246 230 224 213 197 183 182 184 191 194 185 188 183 179 175 169 167 166 162 160 155 158 158 174 184 187 196 200 209 220 231 228 227 226 235 207 250 283 286 287 286 286 284
256 237 227 222 206 198 193 193 195 199 193 187 185 180 175 170 166 170 169 168 168 167 164 177 182 193 207 214 228 236 242 248 242 238 239 249 239 246 281 288 288 288 286
257 247 231 229 222 212 201 196 201 201 193 189 192 186 181 173 171 171 172 174 175 171 168 184 191 193 205 223 238 243 244 247 253 255 250 243 247 250 245 274 288 287 290
249 247 239 228 226 222 210 203 206 203 199 191 191 187 186 179 175 172 175 173 176 181 185 193 203 211 213 229 247 253 251 247 247 249 255 250 245 252 256 248 270 285 291
253 245 244 235 227 219 208 209 201 195 201 198 194 188 188 186 181 181 181 184 184 186 188 196 210 221 223 232 250 260 261 255 248 247 254 251 246 251 261 269 264 262 278
261 253 254 257 235 218 212 210 201 203 203 204 203 198 197 195 189 191 186 187 189 192 196 200 204 213 220 225 251 258 253 243 242 240 246 250 246 249 259 268 273 278 273
329 311 278 262 242 222 215 208 206 207 215 219 211 199 203 200 195 194 193 194 194 196 198 200 204 217 218 222 246 262 256 233 221 238 248 252 254 248 256 265 265 271 283
334 319 305 279 249 229 215 198 190 191 202 211 218 208 210 207 201 202 203 202 200 202 204 204 207 220 225 228 238 252 260 256 267 218 231 242 253 267 266 268 264 267 273
329 318 309 291 262 239 219 209 205 209 212 219 221 216 216 216 207 204 206 207 206 209 211 215 216 225 225 228 229 247 272 290 269 260 220 233 255 265 268 267 264 267 269
334 326 316 305 287 256 228 220 217 222 225 217 215 216 219 217 211 208 208 211 214 218 218 223 227 228 229 232 230 237 245 259 261 263 266 258 254 253 261 263 258 258 261
342 335 326 315 306 293 260 233 223 222 222 216 220 218 217 221 211 210 210 215 219 222 226 229 232 230 233 238 238 235 240 243 244 251 262 270 274 270 262 260 262 262 264